Weather Roundup
Issued by NWS Chicago, IL

Home | Current Version | Previous Version | Text Only | Print | Product List | Glossary Off
Versions: 1 2 3 4 5 6 7 8 9 10 11 12 13 14 15 16 17 18 19 20 21 22 23 24 25 26 27 28 29 30 31 32 33 34 35 36 37 38 39 40 41 42 43 44 45 46 47 48 49 50

000
NZUS59 KLOT 281208
HRRLOT

CHICAGO AREA WEATHER ROUNDUP
NATIONAL WEATHER SERVICE CHICAGO/ROMEOVILLE IL
700 AM CDT SAT MAR 28 2015

NOTE: "FAIR" INDICATES FEW OR NO CLOUDS BELOW 12,000 FEET WITH NO
SIGNIFICANT WEATHER AND/OR OBSTRUCTIONS TO VISIBILITY.

* THESE STATIONS ARE NOT UNDER NWS QUALITY CONTROL. THEY ALSO MAY NOT
  REPORT WEATHER SUCH AS PRECIPITATION OR FOG.

ILZ005-006-012>014-019>023-281300-
NORTHEAST ILLINOIS

CITY           SKY/WX    TMP DP  RH WIND       PRES   REMARKS
OHARE          PTCLDY    20  13  74 N5        30.27R WCI  13
6HR MIN TEMP:  20; 6HR MAX TEMP:  22;

MIDWAY         PTCLDY    25  11  55 NE6       30.28R WCI  18
6HR MIN TEMP:  21; 6HR MAX TEMP:  27;

AURORA         CLEAR     16   9  74 N3        30.28R
6HR MIN TEMP:  14; 6HR MAX TEMP:  20;

LANSING*       CLEAR     22   9  57 E3        30.28R
JOLIET*        CLEAR     20  16  83 N3        30.29R
WAUKEGAN       CLEAR     15  12  88 NW5       30.28R WCI   8
6HR MIN TEMP:  13; 6HR MAX TEMP:  19;

DUPAGE AIRPORT CLEAR     16  11  80 N3        30.27R
6HR MIN TEMP:  12; 6HR MAX TEMP:  20;

WHEELING       CLEAR     19  13  77 CALM      30.29R
6HR MIN TEMP:  17; 6HR MAX TEMP:  22;

KANKAKEE*      CLEAR     21  17  84 CALM      30.29R
MORRIS*        CLEAR     18  13  81 N3        30.28R
LEWIS AIRPORT* CLEAR     17  12  82 NW5       30.28R WCI  10
NORTHERLY IS     N/A     25  12  58 N12         N/A  WCI  14
$$

WIZ051-052-058>065-066-070>072-281300-
SOUTHEAST WISCONSIN

CITY           SKY/WX    TMP DP  RH WIND       PRES   REMARKS
MILWAUKEE      PTCLDY    19  11  70 NW3       30.28R
6HR MIN TEMP:  18; 6HR MAX TEMP:  23;

KENOSHA*       CLEAR     16  12  84 N5        30.28R WCI   9
RACINE*        CLEAR     17  12  80 NW3       30.30R
BURLINGTON     CLEAR     11   9  92 CALM      30.28R
WAUKESHA       CLEAR     14  10  85 W5        30.28R WCI   6
WEST BEND      CLEAR     14  10  85 CALM      30.28R
$$

INZ001>003-010>013-019-020-281300-
NORTHWEST INDIANA

CITY           SKY/WX    TMP DP  RH WIND       PRES   REMARKS
GARY*          CLEAR     25   7  46 NE7       30.28R WCI  17
MICHIGAN CITY* NOT AVBL
RENSSELAER*    NOT AVBL
VALPARAISO     CLEAR     14   6  70 NE3       30.27R
$$

LMZ740>746-281300-
SOUTHERN LAKE MICHIGAN

STATION/POSITION TIME  SKY/WX   TEMP WIND        PRES    VSBY
                                AIR  DIR/SP/G
                 (UTC)          (F)  (DEG/KT/KT) (MB)    (MI)
HARRISON CRIB    1100            25   30/ 11/ 14   N/A
BURNHAM HARBOR   1200            25   50/ 10/ 13   N/A
CALUMET HARBOR   1100            25   20/ 11/ 16 1023.4R
BURNS HARBOR     1100            20  110/  4/  7 1025.1R
MICHIGAN CITY    1100            18   70/  7/  8   N/A
$$

ABBREVIATIONS USED IN REMARKS
   TC - TEMPERATURE IN CELSIUS
  WCI - WIND CHILL INDEX
   HX - HEAT INDEX
  VSB - VISIBILITY
$$



USA.gov is the U.S. government's official web portal to all federal, state and local government web resources and services.